Simultaneous Nadir Overpasses (SNOs) Predictions

Prediction of SNOs between NOAA-20 and AQUA Satellite Orbit:

Table of predicted SNOs for the next 14.0 days since TLE Epoch: 1/6/2024
Index Date (NOAA-20) Time (NOAA-20) Lat,Lon (NOAA-20) SZA (NOAA-20 ) Date (AQUA) Time (AQUA) Lat,Lon (AQUA) SZA (AQUA ) Distance(km) Time Diff (sec)
1 01/07/2024 02:56:19 81.03, 52.81 111.31 01/07/2024 02:56:30 81.03, 52.85 111.30 0.82 11
2 01/07/2024 03:47:02 -81.06,-139.07 68.81 01/07/2024 03:45:52 -81.07,-138.92 68.79 2.56 70
3 01/09/2024 15:50:14 81.02,-141.08 111.09 01/09/2024 15:51:10 81.02,-141.00 111.04 1.44 56
4 01/09/2024 16:40:57 -81.05, 27.04 69.04 01/09/2024 16:40:32 -81.05, 27.23 69.06 3.21 25
5 01/12/2024 05:34:51 -81.05,-166.51 69.37 01/12/2024 05:35:11 -81.04,-166.56 69.38 0.98 20
6 01/12/2024 06:25:33 81.08, 1.78 110.49 01/12/2024 06:24:32 81.08, 1.77 110.53 0.37 61
7 01/14/2024 18:28:46 -81.03, -0.48 69.68 01/14/2024 18:29:49 -81.03, -0.30 69.75 3.28 63
8 01/14/2024 19:19:27 81.08, 168.17 110.12 01/14/2024 19:19:10 81.08, 168.02 110.15 2.61 17
9 01/17/2024 08:13:21 81.06, -25.85 109.77 01/17/2024 08:13:47 81.05, -26.03 109.78 3.26 26
10 01/17/2024 09:04:04 -81.09, 142.31 70.37 01/17/2024 09:03:09 -81.09, 142.21 70.32 1.61 55
11 01/19/2024 21:07:15 81.05, 140.47 109.32 01/19/2024 21:08:23 81.05, 140.35 109.30 2.12 68



Historial Predications of SNOs between NOAA-20 and AQUA
